EA1HTW-13 Weather Reports


time (UTC)temp
F
wind
direction
speed
knots
gust
knots
rain 1hr
in
rain 24hr
in
rain mn
in
humidity
%
barometer
mb
20260510213815 57 45 0.0 0.9 0.01 0.85 0.73 81 1002.6
20260510212914 57 45 0.0 0.9 0.01 0.87 0.73 81 1002.2
20260510212014 57 45 0.0 0.0 0.02 0.87 0.73 80 1002.4
20260510211114 57 45 0.0 0.9 0.02 0.87 0.73 80 1002.4
20260510210214 57 45 0.0 1.7 0.01 0.86 0.72 79 1002.4
20260510205314 57 45 0.9 0.9 0.01 0.86 0.72 78 1002.2
20260510204414 58 45 0.9 1.7 0.01 0.86 0.72 78 1002.1
20260510203514 58 90 0.9 1.7 0.01 0.86 0.72 78 1001.7
20260510202614 58 90 0.0 0.9 0.01 0.86 0.72 78 1001.7
20260510201714 58 135 0.9 1.7 0.00 0.85 0.71 78 1001.5
20260510200815 58 90 0.9 1.7 0.00 0.85 0.71 78 1001.5
20260510195914 58 77 0.9 1.7 0.00 0.85 0.71 79 1001.1
20260510195014 58 95 0.9 2.6 0.00 0.85 0.71 79 1001.0
20260510194114 58 180 0.0 1.7 0.00 0.85 0.71 79 1001.0
20260510193215 58 55 0.0 1.7 0.00 0.85 0.71 78 1001.0
20260510192315 58 92 0.9 1.7 0.00 0.85 0.71 77 1001.0
20260510191414 59 110 0.0 0.9 0.00 0.85 0.71 77 1001.0
20260510190514 59 135 0.0 0.9 0.00 0.85 0.71 75 1001.2
20260510185615 59 90 0.0 0.9 0.00 0.85 0.71 73 1001.2
20260510184714 60 90 0.0 0.9 0.00 0.85 0.71 72 1001.1
20260510183814 60 93 0.9 1.7 0.00 0.85 0.71 70 1001.2
20260510182914 61 78 1.7 2.6 0.00 0.85 0.71 68 1001.2
20260510182015 61 119 0.9 0.9 0.00 0.85 0.71 65 1001.0
20260510181114 62 114 0.9 0.9 0.00 0.85 0.71 63 1001.0
20260510180215 62 99 0.9 2.6 0.00 0.85 0.71 61 1001.2
20260510175315 62 112 0.9 1.7 0.00 0.85 0.71 61 1001.1
20260510174414 63 90 0.9 1.7 0.00 0.85 0.71 60 1001.2
20260510173514 63 133 0.0 1.7 0.00 0.85 0.71 59 1001.2
20260510172614 63 128 0.0 1.7 0.00 0.85 0.71 58 1001.3
20260510171713 63 108 0.0 0.9 0.00 0.85 0.71 56 1001.3
20260510170814 63 114 0.9 2.6 0.00 0.85 0.71 56 1001.1
20260510165914 63 90 0.0 0.9 0.00 0.85 0.71 55 1001.2
20260510165013 63 130 0.9 2.6 0.00 0.85 0.71 54 1001.1
20260510164114 63 135 0.9 1.7 0.00 0.85 0.71 54 1001.3
20260510163215 63 174 1.7 2.6 0.00 0.85 0.71 53 1001.3
20260510162314 64 135 2.6 4.3 0.00 0.85 0.71 49 1001.2
20260510161414 64 90 2.6 2.6 0.00 0.85 0.71 50 1001.2
20260510160514 64 120 1.7 4.3 0.00 0.85 0.71 50 1001.3
20260510155615 64 119 1.7 5.2 0.00 0.85 0.71 51 1001.1
20260510154714 64 100 4.3 6.1 0.00 0.85 0.71 50 1001.2
20260510153813 63 135 1.7 6.1 0.00 0.85 0.71 54 1001.2
20260510152914 63 68 2.6 5.2 0.00 0.86 0.71 54 1001.2
20260510152015 63 97 0.9 2.6 0.00 0.86 0.71 57 1001.4
20260510151115 63 125 2.6 2.6 0.00 0.86 0.71 59 1001.2
20260510150214 63 91 1.7 4.3 0.00 0.86 0.71 58 1001.3
20260510145315 64 104 1.7 5.2 0.00 0.86 0.71 53 1001.4
20260510144414 65 178 1.7 4.3 0.00 0.92 0.71 52 1001.3
20260510143515 65 103 1.7 2.6 0.00 0.92 0.71 52 1001.4
20260510142614 65 117 1.7 4.3 0.00 0.92 0.71 51 1001.3
20260510141714 65 106 2.6 6.1 0.00 0.92 0.71 52 1001.5
20260510140814 64 90 2.6 5.2 0.00 0.92 0.71 51 1001.5
20260510135915 65 132 2.6 5.2 0.00 0.92 0.71 52 1001.4
20260510135013 66 180 1.7 7.0 0.00 0.93 0.71 51 1001.6
20260510134115 65 135 1.7 5.2 0.00 0.93 0.71 51 1001.5
20260510133214 65 70 2.6 5.2 0.00 0.93 0.71 55 1001.7
20260510132314 64 90 2.6 5.2 0.00 0.93 0.71 56 1001.7
20260510131415 64 135 2.6 5.2 0.00 0.93 0.71 54 1001.9
20260510130514 63 179 4.3 7.8 0.00 0.94 0.71 56 1001.7
20260510125614 64 180 1.7 5.2 0.00 1.03 0.71 53 1001.8
20260510124714 64 197 4.3 8.7 0.00 1.07 0.71 53 1001.6
20260510123815 64 128 5.2 7.0 0.00 1.09 0.71 52 1001.6
20260510122914 65 118 4.3 7.0 0.00 1.09 0.71 51 1001.6
20260510122014 65 73 1.7 5.2 0.00 1.09 0.71 52 1001.6
20260510121115 64 135 4.3 6.1 0.00 1.09 0.71 52 1001.4
20260510120215 64 114 4.3 7.0 0.00 1.09 0.71 51 1001.4
20260510115315 64 135 2.6 5.2 0.00 1.09 0.71 51 1001.7
20260510114415 64 106 1.7 5.2 0.00 1.09 0.71 53 1001.6
20260510113514 64 112 2.6 5.2 0.00 1.09 0.71 59 1001.6
20260510112615 62 135 2.6 4.3 0.00 1.09 0.71 61 1001.5
20260510111714 63 95 2.6 2.6 0.00 1.09 0.71 60 1001.6
20260510110815 63 135 2.6 5.2 0.00 1.09 0.71 60 1001.5
20260510105915 63 120 2.6 5.2 0.00 1.09 0.71 62 1001.5
20260510105013 62 90 1.7 4.3 0.00 1.09 0.71 63 1001.5
20260510104114 62 135 1.7 2.6 0.00 1.09 0.71 63 1001.4
20260510103215 62 135 2.6 5.2 0.00 1.09 0.71 62 1001.5
20260510102315 62 126 1.7 2.6 0.00 1.09 0.71 62 1001.3
20260510101414 61 135 1.7 2.6 0.00 1.09 0.71 62 1001.4
20260510100515 61 74 1.7 4.3 0.01 1.09 0.71 62 1001.3
20260510095614 61 91 1.7 4.3 0.01 1.09 0.71 63 1001.5
20260510094715 61 135 2.6 5.2 0.01 1.09 0.71 65 1001.2
20260510093815 60 90 0.9 1.7 0.01 1.09 0.71 65 1001.0
20260510092915 60 119 2.6 7.0 0.01 1.09 0.71 65 1001.1
20260510092015 59 103 2.6 5.2 0.01 1.09 0.71 64 1001.2
20260510091114 59 40 2.6 5.2 0.01 1.09 0.71 63 1001.0
20260510090214 59 133 1.7 5.2 0.00 1.07 0.70 64 1001.0
20260510085314 59 111 1.7 2.6 0.00 1.07 0.70 65 1000.8
20260510084414 58 135 1.7 5.2 0.00 1.07 0.70 66 1001.0
20260510083514 58 135 2.6 5.2 0.00 1.07 0.70 65 1000.8
20260510082615 57 90 2.6 4.3 0.00 1.07 0.70 65 1000.9
20260510081714 57 90 0.9 2.6 0.00 1.07 0.70 66 1000.9
20260510080814 58 79 1.7 4.3 0.00 1.07 0.70 69 1000.8
20260510075914 58 53 0.9 2.6 0.00 1.07 0.70 70 1000.6
20260510075013 57 128 0.9 2.6 0.00 1.07 0.70 71 1000.6
20260510074115 57 45 1.7 2.6 0.00 1.07 0.70 73 1000.6
20260510073213 56 135 0.0 2.6 0.00 1.07 0.70 73 1000.4
20260510072314 56 45 1.7 2.6 0.00 1.07 0.70 74 1000.4
20260510071415 56 131 0.9 2.6 0.00 1.07 0.70 74 1000.6
20260510070515 55 123 1.7 2.6 0.00 1.07 0.70 75 1000.4
20260510065613 55 135 0.9 2.6 0.00 1.07 0.70 75 1000.4
20260510064713 55 124 0.0 2.6 0.00 1.07 0.70 76 1000.4
20260510063813 55 90 0.9 1.7 0.00 1.07 0.70 77 1000.2
20260510062914 55 90 0.9 1.7 0.00 1.07 0.70 77 1000.0
20260510062013 55 45 0.9 2.6 0.00 1.07 0.70 78 1000.3
20260510061115 54 90 1.7 2.6 0.00 1.07 0.70 81 1000.2
20260510060213 54 95 1.7 2.6 0.00 1.07 0.70 82 1000.1
20260510055315 54 90 0.0 0.9 0.01 1.07 0.70 81 1000.1
20260510054414 54 90 0.9 1.7 0.01 1.07 0.70 81 1000.0
20260510053514 54 135 0.9 2.6 0.01 1.07 0.70 82 1000.2
20260510052613 53 49 0.9 2.6 0.02 1.07 0.70 83 999.9
20260510051714 53 90 0.9 0.9 0.04 1.07 0.70 84 999.8
20260510050814 53 90 0.0 0.9 0.08 1.07 0.70 85 999.7
20260510045914 53 90 0.0 0.9 0.13 1.07 0.70 85 1000.0
20260510045014 53 90 0.0 0.9 0.12 1.06 0.69 86 999.9
20260510044115 54 90 0.0 0.0 0.13 1.06 0.69 85 1000.0
20260510043215 54 90 0.0 0.9 0.13 1.05 0.67 85 1000.1
20260510042314 54 45 0.0 0.9 0.15 1.05 0.67 85 1000.4
20260510041414 54 128 0.9 2.6 0.15 1.02 0.64 85 1000.3
20260510040514 54 90 0.9 0.9 0.20 0.97 0.59 84 1000.4
20260510035614 54 90 0.0 0.0 0.33 0.94 0.57 83 1000.4
20260510034714 54 90 0.0 0.9 0.37 0.93 0.56 83 1000.2
20260510033814 54 90 0.0 0.9 0.38 0.93 0.56 83 1000.3
20260510032914 54 90 0.0 1.7 0.37 0.92 0.54 83 1000.4
20260510032015 54 90 0.0 1.7 0.33 0.89 0.51 82 1000.5
20260510031115 54 90 0.9 4.3 0.27 0.83 0.45 82 1000.7
20260510030214 54 90 0.9 2.6 0.18 0.73 0.35 80 1000.5
20260510025315 55 122 0.9 2.6 0.05 0.60 0.22 77 1000.7
20260510024415 55 113 0.9 1.7 0.01 0.57 0.19 76 1000.7
20260510023515 55 90 1.7 2.6 0.00 0.56 0.18 75 1000.5
20260510022615 55 105 2.6 5.2 0.00 0.56 0.18 76 1000.5
20260510021715 55 92 1.7 5.2 0.00 0.56 0.18 75 1000.6
20260510020815 55 45 1.7 2.6 0.00 0.57 0.18 75 1000.5
20260510015914 55 96 1.7 4.3 0.00 0.57 0.18 76 1000.4
20260510015015 54 90 0.0 0.9 0.00 0.57 0.18 80 1000.5
20260510014115 55 125 0.9 1.7 0.00 0.57 0.18 77 1000.5
20260510013215 55 90 0.9 0.9 0.00 0.57 0.18 76 1000.4
20260510012314 55 90 0.9 1.7 0.00 0.57 0.18 75 1000.3
20260510011415 55 90 0.9 0.9 0.00 0.57 0.18 74 1000.5
20260510010515 55 73 0.9 2.6 0.00 0.57 0.18 74 1000.5
20260510005615 55 126 1.7 5.2 0.00 0.57 0.18 75 1000.5
20260510004714 55 128 0.9 1.7 0.00 0.57 0.18 75 1000.5
20260510003815 55 134 0.9 1.7 0.00 0.57 0.18 76 1000.8
20260510002915 55 135 1.7 5.2 0.00 0.57 0.18 77 1000.6
20260510002015 56 90 0.9 2.6 0.00 0.57 0.18 78 1000.8
20260510001114 56 90 0.0 0.9 0.00 0.57 0.18 79 1000.7
20260510000214 56 105 1.7 2.6 0.00 0.57 0.18 80 1000.7
20260509235313 56 135 1.7 2.6 0.00 0.57 0.18 80 1000.7
20260509234415 56 103 1.7 5.2 0.01 0.57 0.18 81 1000.8
20260509233515 56 91 0.9 2.6 0.02 0.57 0.18 80 1001.0
20260509232614 56 90 0.0 0.9 0.05 0.57 0.18 80 1000.8
20260509231714 56 90 0.0 0.9 0.06 0.57 0.18 80 1000.8
20260509230813 56 90 0.0 0.9 0.11 0.57 0.18 80 1001.1
20260509225914 56 117 0.9 2.6 0.00 0.57 0.18 80 1000.7
20260509225014 56 98 0.9 0.9 0.00 0.57 0.18 79 1000.7
20260509224114 56 120 0.9 0.9 0.00 0.56 0.17 80 1000.8
20260509223214 56 90 1.7 2.6 0.00 0.54 0.15 81 1000.8
20260509222314 56 45 0.9 4.3 0.00 0.52 0.13 81 1000.6
20260509221414 56 90 0.0 0.9 0.00 0.50 0.11 81 1001.0
20260509220514 57 103 0.9 1.7 0.00 0.44 0.05 81 1000.7
20260509215613 57 90 0.0 0.9 0.12 0.37 0.37 80 1000.6
20260509214714 58 90 0.9 0.9 0.07 0.32 0.32 79 1000.7